Location: Newark
(34.0131°N, 4.3314°W)
Time: 22:26:33
(UTC+00:00)

Transit 2A Rocket - Pass Details

Date: 30 October 2019
Orbit: 594 x 909 km, 66.7° (Epoch: 14 November)

Event Time Altitude Azimuth Distance (km) Brightness Sun altitude
Rises 11:54:10 0° 335° (NNW) 2,837 7.5 42.2°
Reaches altitude 10° 11:56:23 10° 336° (NNW) 1,939 6.8 42.2°
Maximum altitude 12:00:42 79° 63° (ENE) 628 5.3 42.2°
Drops below altitude 10° 12:05:14 10° 151° (SSE) 2,024 8.1 42.2°
Sets 12:07:35 0° 152° (SSE) 2,972 8.7 42.2°
